ONEWEB-0535 (54147 NORAD) Tracking and Keplerian Element Data

This shows tracking and keplerian element data for the satellite.

Feedback or suggestion? Click here.




ElementValue
Catalog54147
NameONEWEB-0535
Epoch Orbit526
Epoch Day325.33334491
Epoch Year2022
RAAN207.37
Inclination87.4723
Eccentricity0.0010919
Argument of Perigee169.785
Mean Anonmoly170.734
Mean Motion14.72767132
Decay Rate-0.00964275
L11 54147U 22138AL 22325.33334491 -.00964275 00000+0 -16262+0 0 9991
L22 54147 87.4723 207.3700 0010919 169.7850 170.7340 14.72767132 5264



Live tracking and technical data element details for ONEWEB-0535 (NORAD 54147). ONEWEB-0535 can be tracked NOW for your location showing map with azimuth and elevation plus other details from your city location.







IsCatalogInMostPopularTable: catalog: 54147, numindb: 5
Update: records affected: 1



GetName: 54147 ONEWEB-0535

Hit Count: updated at: Sun, 04 Dec 2022 21:33:40 GMT